Temperature
3 4 4 4 3 3 3 4 4 5 5 6 5 5 5 5 4 4 3 3 3 2 2 2 2 2 2 1 1 1 1 1 1 1 1 1 1 0 0 0 0 1 1 1
2 3 4 3 3 3 3 4 4 4 5 6 6 6 5 4 4 3 3 3 3 2 2 2 1 1 1 1 1 1 1 1 1 1 0 0 0 0 0 0 0 0 0 0
2 3 3 3 3 3 3 3 4 4 4 5 5 4 4 4 4 3 3 3 2 2 2 1 1 1 1 1 1 1 1 1 0 0 0 0 -0 -0 -0 -0 -0 -0 -0 -0
2 2 2 4 4 4 4 3 4 4 4 4 4 4 4 4 3 3 3 2 2 2 1 1 1 1 1 0 0 0 0 0 0 0 0 -0 -0 -0 -0 -1 -1 -1 -1 -1
1 2 3 4 3 3 3 3 3 3 4 4 4 3 3 3 3 3 2 2 2 1 1 1 1 0 0 0 0 0 0 0 -0 -0 -0 -0 -0 -1 -1 -1 -1 -1 -1 -1
1 2 2 4 3 3 3 2 3 3 3 2 3 1 1 3 3 2 2 2 1 1 1 0 0 0 0 0 -0 -0 -0 -0 -0 -0 -0 -1 -1 -1 -1 -1 -2 -2 -2 -2
1 1 2 2 2 3 2 2 3 3 3 2 2 2 2 2 2 2 1 1 1 0 0 0 -0 -0 -0 -0 -0 -1 -1 -1 -1 -1 -1 -1 -1 -1 -2 -2 -2 -2 -2 -2
0 1 2 1 1 1 2 2 3 3 3 2 2 2 2 1 1 1 1 0 0 -0 -0 -1 -1 -1 -1 -1 -1 -1 -1 -1 -1 -1 -1 -1 -2 -2 -2 -2 -2 -2 -3 -2
1 1 1 1 2 2 2 2 2 2 2 2 1 1 1 1 1 0 0 -0 -1 -1 -1 -1 -1 -1 -1 -1 -1 -1 -1 -1 -2 -2 -2 -2 -2 -2 -2 -2 -3 -3 -3 -3
0 1 1 2 2 2 2 2 2 2 2 1 1 1 0 0 0 -0 -0 -1 -1 -1 -1 -1 -1 -1 -1 -2 -2 -2 -2 -2 -2 -2 -2 -2 -2 -2 -3 -3 -3 -3 -3 -3
-1 -0 0 1 2 2 1 1 1 1 1 1 1 0 0 -0 -0 -1 -1 -1 -1 -2 -2 -2 -2 -2 -2 -2 -2 -2 -2 -2 -3 -3 -3 -3 -3 -3 -3 -3 -3 -3 -3 -3
-0 1 0 1 1 1 1 1 1 1 0 1 0 0 -0 -0 -1 -1 -1 -1 -2 -2 -2 -2 -2 -2 -2 -2 -2 -3 -3 -3 -3 -3 -3 -3 -3 -3 -4 -4 -4 -4 -4 -4
1 1 1 1 1 1 1 1 0 0 0 0 -0 -0 -1 -1 -1 -1 -1 -2 -2 -2 -2 -2 -2 -2 -2 -3 -3 -3 -3 -3 -3 -4 -4 -4 -4 -4 -4 -4 -4 -4 -4 -4
0 0 -0 -0 -0 -0 -0 -0 -0 -0 -1 -1 -1 -1 -1 -1 -1 -1 -2 -2 -2 -2 -2 -2 -2 -3 -3 -3 -3 -4 -4 -4 -4 -4 -4 -4 -4 -4 -4 -4 -4 -4 -4 -4
-1 -1 -1 -1 -1 -1 -1 -1 -1 -1 -1 -1 -1 -2 -2 -2 -2 -2 -2 -2 -2 -2 -3 -3 -3 -3 -3 -3 -4 -4 -4 -4 -4 -4 -4 -4 -4 -5 -5 -5 -5 -5 -5 -5
-2 -2 -2 -2 -2 -2 -2 -1 -2 -2 -2 -2 -2 -2 -2 -2 -2 -2 -2 -2 -3 -3 -3 -3 -3 -3 -3 -4 -4 -4 -4 -4 -4 -4 -5 -5 -5 -5 -5 -5 -5 -5 -5 -5
-3 -3 -3 -3 -3 -2 -2 -2 -2 -2 -2 -2 -3 -3 -3 -3 -3 -3 -3 -3 -3 -3 -3 -3 -3 -4 -4 -4 -4 -4 -4 -4 -5 -5 -5 -5 -5 -5 -5 -5 -5 -5 -5 -5
-3 -3 -3 -3 -3 -3 -3 -3 -3 -3 -3 -3 -3 -3 -3 -3 -3 -3 -3 -3 -3 -3 -4 -4 -4 -4 -4 -4 -4 -5 -5 -5 -5 -5 -5 -5 -5 -5 -5 -5 -5 -6 -5 -5
-3 -3 -3 -3 -3 -3 -3 -3 -3 -3 -3 -3 -3 -4 -4 -4 -4 -4 -4 -4 -4 -4 -4 -4 -4 -4 -4 -5 -5 -5 -5 -5 -5 -5 -5 -5 -5 -6 -6 -6 -6 -6 -6 -6
-4 -4 -4 -4 -4 -4 -4 -4 -4 -4 -4 -4 -4 -4 -4 -4 -4 -4 -4 -4 -4 -4 -4 -4 -4 -5 -5 -5 -5 -5 -5 -5 -5 -5 -5 -6 -6 -6 -6 -6 -6 -6 -6 -6
-4 -4 -4 -4 -5 -5 -5 -4 -4 -4 -4 -4 -4 -4 -4 -4 -4 -4 -4 -4 -4 -4 -4 -5 -5 -5 -5 -5 -5 -5 -5 -6 -6 -6 -6 -6 -6 -6 -6 -6 -6 -6 -6 -6
-5 -5 -5 -5 -5 -5 -5 -5 -5 -5 -5 -5 -5 -5 -5 -5 -5 -5 -5 -5 -5 -5 -5 -5 -5 -5 -5 -5 -6 -6 -6 -6 -6 -6 -6 -6 -6 -6 -6 -6 -6 -6 -6 -6
-5 -5 -5 -5 -5 -5 -5 -5 -5 -5 -5 -5 -5 -5 -5 -5 -5 -5 -5 -5 -5 -5 -5 -5 -5 -5 -6 -6 -6 -6 -6 -6 -6 -6 -6 -6 -6 -6 -6 -6 -6 -6 -6 -6
-5 -5 -5 -6 -6 -6 -5 -5 -5 -5 -5 -5 -5 -6 -6 -6 -6 -5 -5 -5 -5 -5 -5 -5 -6 -6 -6 -6 -6 -6 -6 -6 -6 -6 -6 -6 -6 -6 -6 -6 -6 -6 -6 -6
-5 -5 -5 -6 -6 -6 -6 -6 -6 -6 -6 -6 -6 -6 -6 -6 -6 -6 -6 -6 -6 -6 -6 -6 -6 -6 -6 -6 -6 -6 -6 -6 -6 -6 -6 -6 -6 -6 -6 -6 -6 -6 -6 -6
-5 -5 -6 -6 -6 -6 -6 -6 -6 -6 -6 -6 -6 -6 -6 -6 -6 -6 -6 -6 -6 -6 -6 -6 -6 -6 -6 -6 -6 -6 -7 -7 -7 -7 -7 -7 -7 -7 -7 -7 -6 -6 -6 -6
-6 -6 -6 -6 -6 -6 -6 -6 -7 -7 -7 -7 -7 -7 -7 -7 -6 -6 -6 -6 -6 -6 -6 -6 -6 -6 -6 -7 -7 -7 -7 -7 -7 -7 -7 -7 -7 -7 -7 -7 -7 -6 -6 -6
Wind_Speed
8 8 5 7 9 9 11 10 8 8 8 7 5 3 2 2 2 1 1 1 1 0 1 1 1 1 1 1 1 1 1 1 1 1 1 1 0 1 1 1 1 1 1 1
7 7 6 9 10 12 12 12 12 11 11 5 3 2 2 2 2 2 2 2 1 1 1 1 1 1 0 1 1 1 1 1 1 1 1 1 1 1 1 1 1 1 1 2
4 3 3 8 11 13 9 8 9 12 9 3 2 2 3 3 2 3 3 2 2 2 2 1 1 1 1 1 0 1 0 0 1 1 1 1 1 1 1 1 1 1 2 2
3 1 7 6 2 7 9 9 8 7 5 3 3 2 2 2 3 3 2 2 1 1 1 1 1 1 1 1 0 1 1 0 1 0 1 1 1 1 2 1 1 2 2 2
3 4 7 4 2 3 5 6 6 8 5 2 0 2 2 1 2 2 2 1 1 1 1 1 1 1 1 1 0 0 1 1 1 1 1 1 2 2 2 1 2 2 2 2
4 4 6 3 1 1 2 4 3 3 3 2 2 1 3 0 2 2 2 2 1 1 1 1 1 1 1 1 1 1 1 1 1 1 2 2 2 2 2 1 2 2 2 2
7 6 6 2 1 2 3 5 1 2 2 2 3 4 2 2 2 2 2 2 2 2 1 1 1 1 1 1 1 1 1 1 1 2 2 2 2 2 2 2 2 2 3 3
4 5 6 1 3 4 4 1 1 1 1 1 1 2 1 2 2 2 2 2 2 1 1 0 1 1 1 1 1 1 1 1 1 1 2 1 1 1 1 1 2 2 2 3
6 5 2 3 3 3 1 2 2 1 1 2 2 2 1 1 1 2 1 1 1 1 1 0 0 1 2 2 1 0 0 1 1 1 1 1 1 1 1 1 1 2 2 2
4 5 4 4 4 3 2 2 2 1 2 3 3 3 2 2 2 1 1 1 1 1 1 0 1 0 1 1 1 1 1 1 1 1 1 1 1 1 1 1 1 2 2 2
6 6 5 5 5 3 2 2 2 1 2 3 4 3 3 2 2 2 1 1 1 1 1 1 1 1 1 0 0 1 1 1 1 1 1 1 1 1 2 2 3 3 2 3
7 5 4 5 3 3 2 2 2 2 1 1 3 3 3 3 2 2 2 1 1 1 1 1 1 1 1 1 1 1 1 1 1 1 1 1 1 2 3 4 5 5 6 5
8 6 5 5 4 3 3 3 2 2 2 1 2 3 3 2 2 2 1 1 2 2 1 1 1 1 2 2 1 1 1 1 1 1 1 1 1 1 2 3 4 5 6 6
5 5 5 5 4 3 2 1 0 1 1 2 2 2 2 2 1 1 2 2 1 1 1 1 1 2 2 1 1 1 1 2 1 1 1 1 1 2 2 2 3 3 4 5
5 4 3 2 1 1 1 1 2 1 1 1 1 2 2 2 2 2 2 1 1 1 2 1 2 2 1 1 1 1 1 1 1 1 1 1 1 1 2 2 3 3 3 3
4 2 2 1 1 1 0 1 1 1 1 1 1 1 1 1 1 1 1 2 2 2 2 2 2 2 1 1 1 1 1 3 2 1 1 1 1 1 2 2 3 3 3 3
1 2 3 3 3 2 2 2 2 2 2 2 2 1 1 1 1 1 2 1 2 2 3 2 3 2 2 2 2 2 1 2 3 2 1 2 2 2 2 2 3 3 3 4
2 3 3 3 2 2 2 2 1 2 2 2 1 1 2 2 2 2 2 1 1 2 2 2 2 2 2 2 2 2 2 2 2 2 2 2 2 2 2 2 3 3 3 4
1 1 1 1 2 2 2 2 1 1 1 1 2 2 3 3 2 2 1 1 2 3 3 2 2 1 2 2 2 1 2 2 2 2 2 3 2 2 2 2 3 3 3 3
1 1 1 1 1 0 1 1 1 1 1 1 1 1 2 2 2 2 2 3 4 3 2 2 2 2 2 2 2 1 2 2 2 2 2 2 2 2 2 3 3 3 3 3
2 1 1 1 1 1 1 1 1 1 1 1 2 3 3 3 2 2 2 3 3 2 2 3 1 1 1 1 2 1 2 2 2 2 2 2 2 2 3 3 3 3 3 3
1 1 1 1 1 1 2 1 1 1 1 1 1 1 2 2 2 2 3 3 3 3 1 1 1 2 2 2 1 1 1 2 2 2 2 2 2 2 3 3 3 3 2 2
1 1 1 1 1 1 2 1 1 1 1 2 2 2 2 3 2 2 3 2 1 3 2 2 3 3 3 1 1 1 2 2 2 2 2 2 2 2 3 3 3 2 2 2
1 1 1 1 0 1 2 2 1 1 2 2 3 3 3 2 2 2 2 3 3 3 2 3 4 4 2 1 1 1 2 2 2 2 2 2 2 2 2 2 2 2 2 2
1 1 1 1 1 1 1 2 1 1 1 1 1 2 2 2 2 2 1 1 2 2 1 2 3 3 1 1 1 1 1 2 2 1 1 1 2 2 2 2 2 2 2 2
1 1 1 2 2 1 1 1 1 1 1 1 1 1 1 0 1 1 1 1 2 2 1 1 1 1 1 1 1 1 1 1 2 1 1 1 2 2 2 2 2 2 2 2
1 1 1 1 1 1 1 1 1 1 1 1 1 1 1 1 0 0 0 1 1 1 1 1 1 1 1 0 0 0 0 1 1 1 1 1 2 2 2 2 2 2 2 2
Wind_Direction
265 276 244 236 227 215 219 222 230 251 258 253 236 226 203 185 182 186 196 184 157 145 120 122 102 76 75 73 81 103 127 128 181 184 162 150 206 247 248 260 275 252 248 259
266 252 246 253 234 222 230 235 245 262 271 268 249 198 203 203 201 215 226 224 211 212 175 145 145 151 131 78 57 101 124 154 204 189 177 179 215 242 253 263 274 258 245 246
260 229 275 252 229 217 218 218 219 240 250 267 267 229 224 215 206 213 225 235 218 206 194 177 183 181 172 179 116 81 97 278 227 205 208 209 226 241 256 260 273 275 267 257
258 239 237 241 189 203 218 230 222 239 252 238 237 237 230 190 194 216 222 222 213 179 165 177 184 176 171 169 191 185 183 279 247 214 237 245 238 250 265 262 265 270 276 271
231 241 263 262 217 190 205 247 228 233 245 250 77 347 285 194 182 196 196 183 177 158 154 166 178 179 156 194 229 211 208 239 245 235 243 257 254 259 266 265 271 271 270 262
229 237 242 251 200 189 147 265 274 222 219 180 126 242 250 176 86 88 79 89 93 96 107 143 177 152 148 196 213 238 252 262 266 255 243 253 256 264 275 266 265 271 273 267
235 247 261 265 188 127 171 251 286 196 202 181 202 216 191 115 87 85 74 78 88 99 113 151 171 154 169 206 238 239 260 277 275 263 248 252 260 266 264 270 276 275 271 268
210 227 253 168 143 184 225 249 252 237 209 183 182 146 121 108 109 95 79 74 81 92 87 113 149 157 183 234 247 211 242 260 270 272 264 253 240 258 254 252 264 272 271 281
207 221 255 178 202 234 246 264 282 264 230 180 183 193 189 182 158 137 123 99 92 116 107 26 138 168 193 235 229 210 278 281 272 274 269 241 224 240 255 249 255 271 268 275
261 267 263 250 262 269 265 262 269 246 210 188 199 195 192 184 170 158 132 116 119 132 159 281 316 354 207 215 192 172 226 270 277 282 285 272 257 240 229 242 255 271 273 276
255 269 285 263 253 262 284 296 280 262 223 191 182 192 192 189 184 176 163 156 164 180 195 247 302 349 333 301 160 191 230 262 287 287 270 288 299 282 264 251 249 254 259 258
247 251 245 263 274 269 263 264 256 232 235 182 172 180 179 186 186 177 178 175 182 201 208 242 298 317 317 316 240 207 254 277 285 288 287 277 291 314 299 276 279 275 273 275
254 272 265 273 281 269 245 251 253 216 196 187 167 166 166 175 178 175 185 191 200 212 224 241 277 291 303 313 300 238 244 263 270 279 282 283 282 290 309 316 299 287 282 282
267 270 270 268 269 278 258 243 126 117 121 134 144 141 146 158 179 202 219 215 202 211 227 224 240 267 280 291 290 265 257 268 267 255 261 272 282 288 291 300 312 308 295 291
277 271 261 274 295 321 35 90 94 111 120 109 120 140 159 181 208 229 234 197 179 217 232 224 235 263 271 263 280 275 267 257 251 245 252 259 268 276 279 287 290 295 306 310
281 299 297 283 267 260 69 114 174 212 185 160 160 190 203 207 237 254 230 188 193 226 243 238 245 255 258 238 251 260 245 247 255 247 250 255 257 262 268 273 282 285 292 301
279 273 266 263 257 243 230 221 212 213 205 199 209 201 159 157 238 256 257 238 230 242 240 234 243 249 246 235 227 230 234 240 250 263 256 254 260 262 262 269 277 279 283 289
251 251 247 248 247 248 245 235 224 211 217 207 182 171 188 205 231 255 269 299 316 298 270 243 240 242 243 232 224 219 220 236 241 238 244 246 261 264 262 266 272 280 292 298
303 279 265 263 256 233 229 235 235 232 227 182 182 211 228 234 242 255 264 260 256 266 268 251 242 244 247 240 237 209 209 228 244 247 246 258 268 269 275 279 280 282 289 293
350 350 336 323 338 292 248 250 236 239 234 199 195 225 248 251 247 245 246 248 245 243 250 257 253 245 240 231 222 208 216 227 237 247 246 243 252 262 269 275 277 280 283 286
354 357 359 7 356 345 291 240 217 226 237 212 206 221 241 256 248 232 233 261 272 251 245 249 248 242 230 238 230 221 225 234 242 247 248 249 254 265 271 273 277 281 283 286
347 355 348 346 358 340 334 332 267 235 241 247 241 229 236 251 253 253 242 239 251 269 273 240 245 240 245 252 228 222 232 241 249 252 249 248 254 264 270 275 278 281 286 288
327 335 339 333 316 317 336 336 298 242 242 248 243 235 235 246 242 239 265 259 252 264 269 243 253 253 248 236 230 230 238 245 251 254 252 250 252 258 266 275 280 283 288 296
323 336 327 320 348 347 318 308 299 277 259 259 245 233 229 246 265 245 243 260 273 278 265 255 254 253 245 232 228 232 243 250 255 257 253 252 257 259 262 271 281 284 286 292
305 307 307 316 310 285 280 296 311 302 288 282 274 252 229 221 233 256 271 257 265 285 283 263 260 261 251 223 220 230 244 252 256 256 253 259 263 264 266 269 273 280 286 291
285 286 284 277 268 264 269 279 289 295 307 316 319 316 304 270 217 221 231 243 252 281 287 268 261 260 245 221 226 230 243 265 276 276 269 268 269 270 272 272 274 278 283 289
285 284 295 312 311 292 276 270 266 273 276 276 293 301 305 299 247 206 225 239 258 275 284 291 286 277 265 238 197 262 272 277 276 271 271 275 280 279 276 275 282 285 287 290
Height
1464 1461 1461 1462 1464 1465 1467 1464 1465 1455 1452 1447 1448 1449 1450 1451 1451 1452 1453 1453 1453 1453 1453 1453 1454 1454 1454 1454 1454 1454 1455 1455 1455 1456 1456 1456 1457 1457 1458 1458 1458 1458 1458 1459
1465 1459 1459 1459 1457 1459 1459 1458 1456 1453 1450 1444 1445 1446 1448 1449 1449 1450 1450 1451 1451 1451 1451 1451 1452 1452 1452 1452 1453 1453 1452 1453 1453 1454 1454 1454 1454 1455 1455 1455 1455 1455 1455 1456
1462 1458 1458 1456 1449 1450 1451 1449 1450 1451 1446 1443 1443 1444 1445 1446 1447 1447 1448 1449 1448 1448 1449 1449 1449 1450 1450 1450 1451 1451 1451 1451 1451 1451 1451 1452 1452 1452 1452 1452 1452 1452 1452 1453
1463 1462 1462 1444 1438 1439 1442 1442 1443 1442 1440 1440 1441 1442 1443 1444 1445 1445 1445 1446 1446 1446 1446 1447 1447 1448 1448 1448 1449 1449 1448 1449 1449 1449 1449 1449 1450 1450 1450 1450 1450 1449 1449 1449
1462 1458 1448 1440 1438 1438 1441 1440 1437 1438 1438 1439 1439 1440 1441 1442 1442 1442 1443 1443 1444 1444 1444 1444 1445 1445 1445 1446 1446 1446 1446 1446 1446 1446 1446 1447 1447 1447 1447 1447 1446 1446 1446 1446
1458 1455 1450 1439 1437 1435 1439 1441 1435 1434 1436 1437 1438 1443 1441 1440 1440 1440 1440 1441 1441 1441 1442 1442 1442 1443 1443 1443 1443 1443 1444 1444 1444 1444 1444 1444 1444 1444 1444 1444 1443 1443 1443 1443
1456 1452 1444 1438 1436 1436 1443 1440 1434 1433 1434 1435 1437 1438 1438 1437 1438 1438 1438 1439 1439 1439 1439 1440 1440 1441 1441 1441 1441 1441 1442 1442 1442 1442 1441 1441 1441 1441 1441 1441 1441 1440 1440 1440
1453 1452 1446 1437 1437 1438 1436 1433 1432 1432 1432 1433 1434 1434 1435 1436 1436 1436 1437 1437 1437 1437 1437 1438 1438 1439 1439 1439 1439 1439 1439 1439 1439 1439 1439 1439 1438 1438 1438 1438 1438 1438 1437 1437
1444 1442 1435 1434 1433 1432 1432 1431 1430 1430 1431 1431 1432 1433 1434 1434 1434 1435 1435 1435 1435 1436 1436 1436 1437 1437 1436 1437 1437 1437 1437 1437 1436 1436 1436 1436 1436 1436 1436 1435 1435 1435 1434 1434
1439 1434 1432 1432 1431 1431 1430 1429 1429 1429 1429 1429 1430 1431 1432 1433 1433 1433 1433 1434 1434 1434 1434 1434 1435 1435 1435 1435 1435 1434 1434 1434 1434 1434 1434 1434 1434 1433 1433 1433 1432 1432 1432 1431
1437 1433 1431 1429 1429 1428 1428 1427 1427 1427 1427 1427 1428 1429 1430 1430 1431 1431 1431 1432 1432 1432 1432 1432 1433 1433 1433 1433 1433 1432 1432 1432 1431 1431 1431 1431 1431 1431 1431 1430 1430 1430 1429 1429
1432 1428 1429 1426 1426 1426 1425 1425 1424 1424 1424 1425 1426 1427 1427 1428 1429 1429 1429 1430 1430 1430 1430 1430 1430 1430 1431 1431 1431 1430 1429 1429 1429 1429 1429 1429 1428 1428 1428 1428 1428 1427 1427 1426
1426 1424 1424 1423 1422 1422 1422 1422 1422 1422 1422 1423 1424 1424 1425 1426 1426 1427 1427 1427 1428 1428 1428 1428 1428 1428 1428 1429 1428 1428 1428 1427 1427 1427 1427 1427 1426 1426 1425 1425 1425 1424 1424 1423
1422 1421 1420 1419 1419 1419 1419 1419 1419 1419 1420 1421 1421 1422 1423 1423 1424 1424 1425 1425 1426 1426 1426 1426 1426 1426 1426 1426 1426 1426 1426 1425 1425 1425 1425 1425 1424 1424 1423 1422 1422 1421 1421 1421
1418 1417 1417 1416 1416 1416 1416 1416 1416 1417 1418 1418 1419 1420 1420 1421 1422 1422 1423 1423 1424 1424 1424 1424 1423 1424 1424 1424 1424 1424 1423 1423 1423 1423 1423 1422 1422 1422 1421 1421 1420 1419 1418 1418
1414 1413 1413 1413 1413 1413 1413 1414 1414 1415 1416 1416 1417 1418 1418 1419 1419 1420 1420 1421 1421 1421 1421 1421 1421 1421 1421 1422 1421 1421 1421 1421 1421 1421 1420 1420 1420 1419 1419 1419 1418 1417 1416 1415
1411 1410 1410 1410 1410 1410 1411 1412 1412 1413 1413 1414 1415 1416 1416 1417 1417 1417 1418 1418 1419 1419 1419 1419 1419 1419 1419 1419 1419 1419 1419 1419 1419 1418 1418 1418 1418 1417 1417 1417 1416 1415 1414 1414
1408 1408 1408 1408 1408 1408 1409 1410 1410 1411 1411 1412 1413 1413 1414 1414 1414 1415 1415 1415 1416 1416 1417 1417 1417 1416 1417 1417 1417 1417 1417 1417 1416 1416 1416 1416 1416 1416 1415 1414 1414 1413 1412 1411
1405 1405 1406 1406 1406 1407 1407 1407 1408 1409 1409 1410 1410 1411 1411 1412 1412 1412 1413 1413 1413 1413 1414 1414 1414 1414 1414 1414 1414 1414 1414 1414 1414 1414 1414 1414 1414 1413 1413 1412 1411 1410 1410 1409
1403 1404 1404 1404 1404 1405 1405 1405 1406 1406 1407 1408 1408 1408 1409 1409 1410 1410 1410 1410 1411 1411 1411 1411 1411 1411 1411 1411 1412 1412 1412 1412 1412 1412 1412 1412 1411 1411 1411 1410 1409 1408 1407 1406
1402 1402 1402 1402 1402 1403 1403 1403 1404 1404 1405 1405 1406 1406 1406 1407 1407 1407 1407 1407 1408 1409 1409 1409 1409 1409 1409 1409 1409 1409 1409 1409 1410 1410 1410 1409 1409 1409 1408 1408 1407 1406 1405 1404
1402 1401 1401 1401 1401 1401 1401 1402 1402 1402 1403 1403 1403 1404 1404 1404 1404 1404 1405 1405 1405 1406 1406 1406 1406 1406 1406 1407 1407 1407 1407 1407 1407 1408 1407 1407 1407 1407 1406 1405 1404 1403 1403 1402
1401 1401 1400 1400 1400 1400 1400 1400 1400 1401 1401 1401 1401 1401 1401 1401 1402 1402 1402 1403 1403 1403 1403 1403 1404 1404 1404 1404 1404 1405 1405 1405 1405 1405 1405 1405 1405 1404 1404 1403 1402 1401 1401 1400
1400 1400 1400 1399 1399 1399 1399 1399 1399 1399 1399 1399 1399 1399 1399 1399 1399 1400 1400 1400 1400 1400 1400 1401 1401 1401 1402 1402 1402 1402 1403 1403 1403 1403 1403 1403 1402 1402 1401 1401 1400 1399 1399 1398
1399 1399 1399 1398 1398 1398 1398 1397 1397 1397 1397 1397 1397 1397 1397 1397 1397 1397 1397 1398 1398 1398 1398 1398 1399 1399 1399 1399 1400 1400 1400 1401 1401 1401 1401 1400 1400 1400 1399 1399 1398 1397 1397 1396
1398 1398 1398 1397 1397 1397 1396 1396 1395 1395 1395 1395 1395 1395 1395 1395 1395 1395 1395 1396 1396 1396 1396 1396 1396 1397 1397 1397 1397 1398 1398 1399 1399 1399 1399 1398 1398 1398 1397 1397 1396 1396 1395 1394
1397 1397 1396 1396 1396 1396 1395 1395 1394 1394 1393 1393 1393 1393 1393 1393 1393 1393 1394 1394 1394 1394 1394 1394 1394 1395 1395 1395 1396 1396 1396 1396 1396 1396 1396 1396 1396 1396 1395 1395 1395 1394 1393 1393